• In Netherlands
  • List of Countries
  • For 7 days
  • Water Temperature
  • Satellite Maps
  • Weather Map
  • Weather Widgets
  • user-avatar
    Login

    Hourly Weather Mendoza

    Today, 20 January, Saturday

    Time Temperature Precipitation Wind Pressure Humidity
    00:00 +27°C° 0.2 mm 2 mps 698 mmHg 43%
    01:00 +27°C° 0.2 mm 2 mps 698 mmHg 44%
    02:00 +26°C° 0 mm 2 mps 698 mmHg 44%
    03:00 +26°C° 0 mm 2 mps 698 mmHg 45%
    04:00 +25°C° 0 mm 1 mps 697 mmHg 45%
    05:00 +26°C° 0 mm 1 mps 697 mmHg 42%
    06:00 +27°C° 0 mm 1 mps 698 mmHg 39%
    07:00 +27°C° 0 mm 1 mps 698 mmHg 36%
    08:00 +29°C° 0 mm 2 mps 698 mmHg 34%
    09:00 +30°C° 0 mm 3 mps 698 mmHg 32%
    10:00 +32°C° 0 mm 4 mps 698 mmHg 29%
    11:00 +33°C° 0.2 mm 4 mps 697 mmHg 29%
    12:00 +34°C° 0.2 mm 5 mps 697 mmHg 28%
    13:00 +34°C° 0.2 mm 5 mps 697 mmHg 28%
    14:00 +34°C° 0.4 mm 5 mps 696 mmHg 29%
    15:00 +34°C° 0.4 mm 4 mps 696 mmHg 30%
    16:00 +33°C° 0.4 mm 4 mps 696 mmHg 31%
    17:00 +33°C° 0.5 mm 3 mps 696 mmHg 33%
    18:00 +31°C° 0.5 mm 3 mps 696 mmHg 35%
    19:00 +30°C° 0.5 mm 2 mps 696 mmHg 37%
    20:00 +29°C° 0.8 mm 2 mps 696 mmHg 40%
    21:00 +29°C° 0.8 mm 2 mps 697 mmHg 43%
    22:00 +28°C° 0.8 mm 2 mps 697 mmHg 46%
    23:00 +27°C° 0.4 mm 2 mps 697 mmHg 48%

    Tomorrow, 21 January, Sunday

    Time Temperature Precipitation Wind Pressure Humidity
    00:00 +27°C° 0.4 mm 2 mps 696 mmHg 50%
    01:00 +26°C° 0.4 mm 1 mps 696 mmHg 52%
    02:00 +26°C° 0.1 mm 1 mps 696 mmHg 53%
    03:00 +26°C° 0.1 mm 1 mps 695 mmHg 54%
    04:00 +25°C° 0.1 mm 1 mps 695 mmHg 55%
    05:00 +26°C° 0 mm 1 mps 695 mmHg 52%
    06:00 +27°C° 0 mm 1 mps 696 mmHg 48%
    07:00 +27°C° 0 mm 1 mps 696 mmHg 45%
    08:00 +28°C° 0 mm 2 mps 696 mmHg 42%
    09:00 +29°C° 0 mm 3 mps 696 mmHg 40%
    10:00 +31°C° 0 mm 3 mps 696 mmHg 37%
    11:00 +32°C° 0.2 mm 4 mps 695 mmHg 36%
    12:00 +33°C° 0.2 mm 4 mps 695 mmHg 35%
    13:00 +34°C° 0.2 mm 4 mps 695 mmHg 33%
    14:00 +34°C° 0.2 mm 4 mps 694 mmHg 32%
    15:00 +34°C° 0.2 mm 4 mps 694 mmHg 32%
    16:00 +34°C° 0.2 mm 4 mps 694 mmHg 31%
    17:00 +33°C° 0.1 mm 4 mps 694 mmHg 31%
    18:00 +33°C° 0.1 mm 3 mps 694 mmHg 31%
    19:00 +31°C° 0.1 mm 3 mps 694 mmHg 31%
    20:00 +30°C° 0.5 mm 3 mps 695 mmHg 35%
    21:00 +29°C° 0.5 mm 3 mps 695 mmHg 38%
    22:00 +28°C° 0.5 mm 3 mps 695 mmHg 42%
    23:00 +28°C° 0.2 mm 3 mps 695 mmHg 44%

    Day after tomorrow, 22 January, Monday

    Time Temperature Precipitation Wind Pressure Humidity
    00:00 +27°C° 0.2 mm 3 mps 694 mmHg 47%
    01:00 +26°C° 0.2 mm 3 mps 694 mmHg 50%
    02:00 +26°C° 0 mm 3 mps 694 mmHg 49%
    03:00 +26°C° 0 mm 2 mps 694 mmHg 48%
    04:00 +25°C° 0 mm 2 mps 693 mmHg 48%
    05:00 +26°C° 0.1 mm 2 mps 694 mmHg 44%
    06:00 +27°C° 0.1 mm 2 mps 694 mmHg 41%
    07:00 +28°C° 0.1 mm 2 mps 694 mmHg 37%
    08:00 +29°C° 0 mm 2 mps 694 mmHg 35%
    09:00 +30°C° 0 mm 2 mps 694 mmHg 33%
    10:00 +31°C° 0 mm 2 mps 694 mmHg 30%
    11:00 +32°C° 0 mm 2 mps 694 mmHg 29%
    12:00 +34°C° 0 mm 2 mps 693 mmHg 27%
    13:00 +35°C° 0 mm 3 mps 693 mmHg 25%
    14:00 +35°C° 0 mm 3 mps 693 mmHg 24%
    15:00 +35°C° 0 mm 2 mps 692 mmHg 24%
    16:00 +36°C° 0 mm 2 mps 692 mmHg 23%
    17:00 +35°C° 0.1 mm 2 mps 692 mmHg 25%
    18:00 +34°C° 0.1 mm 2 mps 693 mmHg 27%
    19:00 +32°C° 0.1 mm 2 mps 693 mmHg 28%
    20:00 +31°C° 0.3 mm 3 mps 693 mmHg 31%
    21:00 +30°C° 0.3 mm 4 mps 694 mmHg 34%
    22:00 +29°C° 0.3 mm 5 mps 694 mmHg 37%
    23:00 +28°C° 0.3 mm 5 mps 694 mmHg 42%

    23 January, Tuesday

    Time Temperature Precipitation Wind Pressure Humidity
    00:00 +26°C° 0.3 mm 5 mps 694 mmHg 48%
    01:00 +25°C° 0.3 mm 5 mps 693 mmHg 53%
    02:00 +25°C° 0.1 mm 4 mps 694 mmHg 54%
    03:00 +24°C° 0.1 mm 3 mps 694 mmHg 54%
    04:00 +24°C° 0.1 mm 2 mps 694 mmHg 55%
    05:00 +25°C° 0 mm 2 mps 694 mmHg 50%
    06:00 +26°C° 0 mm 2 mps 695 mmHg 46%
    07:00 +27°C° 0 mm 2 mps 695 mmHg 41%
    08:00 +28°C° 0 mm 2 mps 695 mmHg 37%
    09:00 +30°C° 0 mm 2 mps 695 mmHg 34%
    10:00 +31°C° 0 mm 2 mps 695 mmHg 30%
    11:00 +33°C° 0 mm 3 mps 695 mmHg 29%
    12:00 +34°C° 0 mm 3 mps 694 mmHg 27%
    13:00 +35°C° 0 mm 4 mps 694 mmHg 26%
    14:00 +35°C° 0 mm 3 mps 694 mmHg 25%
    15:00 +35°C° 0 mm 3 mps 693 mmHg 24%
    16:00 +36°C° 0 mm 3 mps 693 mmHg 24%
    17:00 +35°C° 0.1 mm 3 mps 693 mmHg 27%
    18:00 +34°C° 0.1 mm 2 mps 694 mmHg 30%
    19:00 +32°C° 0.1 mm 2 mps 694 mmHg 33%
    20:00 +31°C° 0.1 mm 2 mps 694 mmHg 35%
    21:00 +30°C° 0.1 mm 2 mps 695 mmHg 36%
    22:00 +30°C° 0.1 mm 1 mps 695 mmHg 38%
    23:00 +28°C° 1.3 mm 3 mps 695 mmHg 42%

    24 January, Wednesday

    Time Temperature Precipitation Wind Pressure Humidity
    00:00 +27°C° 1.3 mm 4 mps 695 mmHg 47%
    01:00 +24°C° 1.3 mm 6 mps 695 mmHg 52%
    02:00 +24°C° 1.8 mm 6 mps 696 mmHg 55%
    03:00 +23°C° 1.8 mm 6 mps 696 mmHg 59%
    04:00 +23°C° 1.8 mm 6 mps 696 mmHg 62%
    05:00 +23°C° 0.2 mm 6 mps 697 mmHg 58%
    06:00 +23°C° 0.2 mm 6 mps 698 mmHg 55%
    07:00 +24°C° 0.2 mm 6 mps 698 mmHg 51%
    08:00 +26°C° 0 mm 6 mps 699 mmHg 47%
    09:00 +27°C° 0 mm 6 mps 699 mmHg 42%
    10:00 +29°C° 0 mm 6 mps 699 mmHg 38%
    11:00 +29°C° 0.1 mm 6 mps 699 mmHg 38%
    12:00 +30°C° 0.1 mm 6 mps 698 mmHg 37%
    13:00 +30°C° 0.1 mm 5 mps 698 mmHg 37%
    14:00 +30°C° 0.2 mm 5 mps 698 mmHg 38%
    15:00 +30°C° 0.2 mm 5 mps 697 mmHg 38%
    16:00 +30°C° 0.2 mm 5 mps 697 mmHg 38%
    17:00 +29°C° 0.2 mm 5 mps 698 mmHg 40%
    18:00 +28°C° 0.2 mm 4 mps 698 mmHg 42%
    19:00 +28°C° 0.2 mm 4 mps 698 mmHg 45%
    20:00 +27°C° 0.1 mm 4 mps 698 mmHg 48%
    21:00 +26°C° 0.1 mm 3 mps 699 mmHg 52%
    22:00 +26°C° 0.1 mm 3 mps 699 mmHg 56%
    23:00 +25°C° 0 mm 3 mps 699 mmHg 57%

    25 January, Thursday

    Time Temperature Precipitation Wind Pressure Humidity
    00:00 +25°C° 0 mm 3 mps 698 mmHg 57%
    01:00 +24°C° 0 mm 3 mps 698 mmHg 58%
    02:00 +24°C° 0 mm 3 mps 698 mmHg 56%
    03:00 +22°C° 0 mm 3 mps 698 mmHg 55%
    04:00 +22°C° 0 mm 3 mps 697 mmHg 54%
    05:00 +22°C° 0 mm 4 mps 698 mmHg 51%
    06:00 +23°C° 0 mm 4 mps 698 mmHg 48%
    07:00 +23°C° 0 mm 4 mps 698 mmHg 45%
    08:00 +25°C° 0 mm 4 mps 698 mmHg 43%
    09:00 +27°C° 0 mm 3 mps 698 mmHg 41%
    10:00 +28°C° 0 mm 3 mps 697 mmHg 40%
    11:00 +29°C° 0 mm 3 mps 697 mmHg 39%
    12:00 +30°C° 0 mm 3 mps 696 mmHg 38%
    13:00 +31°C° 0 mm 3 mps 696 mmHg 37%
    14:00 +31°C° 0.1 mm 3 mps 696 mmHg 37%
    15:00 +31°C° 0.1 mm 3 mps 695 mmHg 37%
    16:00 +31°C° 0.1 mm 3 mps 695 mmHg 37%
    17:00 +31°C° 0.3 mm 2 mps 695 mmHg 38%
    18:00 +30°C° 0.3 mm 2 mps 695 mmHg 40%
    19:00 +30°C° 0.3 mm 2 mps 696 mmHg 41%
    20:00 +29°C° 0.2 mm 2 mps 696 mmHg 44%
    21:00 +29°C° 0.2 mm 2 mps 696 mmHg 46%
    22:00 +28°C° 0.2 mm 2 mps 696 mmHg 48%
    23:00 +28°C° 0.1 mm 2 mps 695 mmHg 49%
    Show more